Hourly Data Report for July 02, 2021

WRIGLEY A
NORTHWEST TERRITORIES
Current Station Operator: NAVCAN

63°12'35.000" N
123°26'12.000" W
149.70 m
2204005
YWY

Download Data

Hourly Data (July 2021)
Hourly Data Report for July 2, 2021
TIME
LST
Temp Definition
°C
Dew Point Definition
°C
Rel Hum Definition
%
Precip. Amount Definition
mm

Wind Dir Definition
10's deg

Wind Spd Definition
km/h
Visibility Definition
km
Stn Press Definition
kPa
Hmdx Definition


Wind Chill Definition


Weather Definition


00:00 15.6 13.1 85 LegendMM 8 2 LegendMM 99.79     LegendNANA
01:00 14.2 12.3 88 LegendMM   0 LegendMM 99.77     LegendNANA
02:00 13.0 11.7 91 LegendMM 22 1 LegendMM 99.77     LegendNANA
03:00 11.5 10.6 94 LegendMM 1 4 LegendMM 99.75     LegendNANA
04:00 10.6 9.9 95 LegendMM 6 2 LegendMM 99.75     LegendNANA
05:00 11.4 10.7 95 LegendMM 1 5 LegendMM 99.75     LegendNANA
06:00 13.5 11.3 86 LegendMM 1 2 LegendMM 99.75     LegendNANA
07:00 15.5 11.3 76 LegendMM 34 7 LegendMM 99.74     LegendNANA
08:00 17.6 12.1 70 LegendMM 30 8 LegendMM 99.72     LegendNANA
09:00 18.8 11.3 61 LegendMM 31 11 LegendMM 99.70     LegendNANA
10:00 19.5 12.3 63 LegendMM 33 5 LegendMM 99.68     LegendNANA
11:00 20.8 14.7 68 LegendMM 7 2 LegendMM 99.66 25   LegendNANA
12:00 21.4 13.7 61 LegendMM 16 4 LegendMM 99.68 25   LegendNANA
13:00 23.1 12.6 51 LegendMM 17 1 LegendMM 99.65 26   LegendNANA
14:00 22.3 16.6 70 LegendMM 5 1 LegendMM 99.67 27   LegendNANA
15:00 24.3 13.0 49 LegendMM 30 7 LegendMM 99.65 27   LegendNANA
16:00 25.5 10.9 39 LegendMM 26 8 LegendMM 99.59 27   LegendNANA
17:00 23.5 10.8 44 LegendMM 31 4 LegendMM 99.60 25   LegendNANA
18:00 23.1 14.7 59 LegendMM 0 1 LegendMM 99.60 27   LegendNANA
19:00 23.5 12.0 48 LegendMM 4 4 LegendMM 99.62 26   LegendNANA
20:00 22.6 14.2 59 LegendMM 11 2 LegendMM 99.65 26   LegendNANA
21:00 22.2 14.4 61 LegendMM 9 5 LegendMM 99.67 26   LegendNANA
22:00 20.6 14.2 66 LegendMM 35 2 LegendMM 99.68     LegendNANA
23:00 19.1 14.9 76 LegendMM 36 5 LegendMM 99.69     LegendNANA

Notes on Data Quality.

Legend

  • E = Estimated
  • M = Missing
  • NA = Not Available*
  • [empty] = Indicates an unobserved value
Date modified: